Location: �perlecques
(50.8057°N, 2.1521°E)
Time: 04:31:01
(UTC+00:00)

FO-29 - Visible Passes

Search period start: 29 March 2023 00:00
Search period end: 08 April 2023 00:00
Orbit: 801 x 1320 km, 98.5° (Epoch: 28 March)

Date Brightness Start Highest point End Pass type
(mag) Time Alt. Az. Time Alt. Az. Time Alt. Az.
29 Mar 12.4 03:14:30 10° NE 03:19:39 19° E 03:24:32 10° SE visible
29 Mar 10.3 04:58:12 10° NNE 05:06:01 78° ESE 05:13:08 10° S visible
30 Mar 11.5 04:03:29 10° NNE 04:10:34 38° E 04:17:03 10° SSE visible
31 Mar 12.4 03:09:44 10° NE 03:14:31 18° E 03:19:03 10° ESE visible
31 Mar 10.3 04:53:14 10° NNE 05:00:59 74° ESE 05:07:58 10° S visible
01 Apr 11.6 03:58:35 10° NNE 04:05:28 36° E 04:11:46 10° SSE visible
02 Apr 12.4 03:05:00 10° NE 03:09:22 16° E 03:13:30 10° ESE visible
02 Apr 10.4 04:48:17 10° NNE 04:55:56 70° ESE 05:02:47 10° S visible
03 Apr 11.6 03:53:40 10° NNE 04:00:22 33° E 04:06:27 10° SSE visible
04 Apr 12.5 03:00:19 10° NE 03:04:12 15° ENE 03:07:54 10° ESE visible
04 Apr 10.4 04:43:20 10° NNE 04:50:52 66° E 04:57:34 10° S visible
05 Apr 11.7 03:48:46 10° NNE 03:55:15 31° E 04:01:07 10° SSE visible
06 Apr 12.5 02:55:42 10° NE 02:59:01 13° ENE 03:02:12 10° ESE visible
06 Apr 10.5 04:38:23 10° NNE 04:45:48 62° E 04:52:22 10° S visible
07 Apr 11.8 03:43:53 10° NNE 03:50:07 29° E 03:55:45 10° SSE visible
